| time (UTC) | temp F | wind direction | speed MPH | gust MPH | rain 1hr in | rain 24hr in | rain mn in | humidity % | barometer mb |
| 20260507114549 | 45 | 69 | 2.0 | 8.0 | 0.00 | 0.31 | 0.02 | 87 | 1010.6 |
| 20260507113049 | 45 | 11 | 3.0 | 10.0 | 0.00 | 0.31 | 0.02 | 89 | 1010.4 |
| 20260507111551 | 45 | 360 | 5.0 | 10.0 | 0.00 | 0.31 | 0.02 | 90 | 1010.4 |
| 20260507110056 | 45 | 10 | 2.0 | 7.0 | 0.00 | 0.31 | 0.02 | 90 | 1010.1 |
| 20260507104555 | 44 | 355 | 1.0 | 5.0 | 0.00 | 0.31 | 0.02 | 91 | 1009.8 |
| 20260507103052 | 44 | 5 | 0.0 | 5.0 | 0.00 | 0.31 | 0.02 | 91 | 1009.4 |
| 20260507101601 | 44 | 0 | 0.0 | 2.0 | 0.00 | 0.31 | 0.02 | 91 | 1009.5 |
| 20260507100047 | 44 | 17 | 1.0 | 4.0 | 0.00 | 0.31 | 0.02 | 91 | 1009.2 |
| 20260507094559 | 45 | 14 | 2.0 | 7.0 | 0.00 | 0.31 | 0.02 | 91 | 1009.0 |
| 20260507093050 | 45 | 348 | 2.0 | 5.0 | 0.00 | 0.31 | 0.02 | 91 | 1009.1 |
| 20260507091600 | 46 | 0 | 1.0 | 10.0 | 0.00 | 0.31 | 0.02 | 91 | 1009.0 |
| 20260507090108 | 46 | 0 | 2.0 | 8.0 | 0.00 | 0.31 | 0.02 | 91 | 1008.9 |
| 20260507084546 | 46 | 342 | 2.0 | 6.0 | 0.00 | 0.31 | 0.02 | 92 | 1009.0 |
| 20260507083050 | 46 | 332 | 0.0 | 5.0 | 0.00 | 0.31 | 0.02 | 92 | 1009.4 |
| 20260507081555 | 46 | 0 | 0.0 | 4.0 | 0.00 | 0.31 | 0.02 | 92 | 1009.3 |
| 20260507080049 | 47 | 0 | 0.0 | 0.0 | 0.00 | 0.31 | 0.02 | 92 | 1009.5 |
| 20260507074546 | 47 | 0 | 0.0 | 0.0 | 0.00 | 0.31 | 0.02 | 92 | 1009.4 |
| 20260507073058 | 47 | 0 | 0.0 | 2.0 | 0.00 | 0.31 | 0.02 | 92 | 1009.4 |
| 20260507071548 | 47 | 352 | 0.0 | 4.0 | 0.00 | 0.31 | 0.02 | 92 | 1009.4 |
| 20260507070131 | 47 | 0 | 0.0 | 2.0 | 0.02 | 0.31 | 0.02 | 92 | 1009.4 |
| 20260507064551 | 47 | 0 | 0.0 | 6.0 | 0.02 | 0.31 | 0.02 | 92 | 1009.4 |
| 20260507063049 | 47 | 322 | 0.0 | 4.0 | 0.02 | 0.31 | 0.02 | 91 | 1008.9 |
| 20260507061548 | 48 | 5 | 0.0 | 7.0 | 0.02 | 0.31 | 0.02 | 90 | 1008.8 |
| 20260507060056 | 48 | 19 | 2.0 | 8.0 | 0.00 | 0.29 | 0.00 | 90 | 1008.7 |
| 20260507054555 | 48 | 348 | 2.0 | 7.0 | 0.00 | 0.29 | 0.00 | 90 | 1008.5 |
| 20260507053053 | 48 | 339 | 1.0 | 4.0 | 0.00 | 0.29 | 0.00 | 89 | 1008.4 |
| 20260507051553 | 49 | 355 | 2.0 | 9.0 | 0.00 | 0.29 | 0.00 | 89 | 1008.5 |
| 20260507050052 | 49 | 34 | 4.0 | 8.0 | 0.00 | 0.29 | 0.00 | 89 | 1008.9 |
| 20260507044550 | 49 | 327 | 1.0 | 9.0 | 0.00 | 0.29 | 0.00 | 89 | 1009.0 |
| 20260507043049 | 49 | 350 | 2.0 | 8.0 | 0.00 | 0.29 | 0.00 | 89 | 1008.9 |
| 20260507041550 | 49 | 331 | 2.0 | 10.0 | 0.00 | 0.29 | 0.00 | 89 | 1009.1 |
| 20260507040051 | 49 | 331 | 4.0 | 10.0 | 0.00 | 0.29 | 0.00 | 88 | 1009.1 |
| 20260507034552 | 49 | 323 | 2.0 | 10.0 | 0.00 | 0.29 | 0.29 | 89 | 1008.6 |
| 20260507033050 | 49 | 33 | 2.0 | 11.0 | 0.00 | 0.29 | 0.29 | 88 | 1008.7 |
| 20260507031547 | 49 | 11 | 2.0 | 11.0 | 0.00 | 0.29 | 0.29 | 88 | 1009.0 |
| 20260507030057 | 50 | 0 | 4.0 | 11.0 | 0.00 | 0.29 | 0.29 | 88 | 1009.1 |
| 20260507024550 | 50 | 5 | 3.0 | 10.0 | 0.00 | 0.29 | 0.29 | 88 | 1009.2 |
| 20260507023051 | 50 | 360 | 2.0 | 11.0 | 0.00 | 0.29 | 0.29 | 88 | 1009.3 |
| 20260507021604 | 50 | 0 | 4.0 | 14.0 | 0.00 | 0.29 | 0.29 | 89 | 1009.1 |
| 20260507020105 | 51 | 61 | 3.0 | 14.0 | 0.00 | 0.29 | 0.29 | 89 | 1009.0 |
| 20260507014611 | 52 | 46 | 3.0 | 12.0 | 0.00 | 0.29 | 0.29 | 91 | 1009.2 |
| 20260507013055 | 53 | 19 | 2.0 | 13.0 | 0.00 | 0.29 | 0.29 | 89 | 1008.7 |
| 20260507011551 | 57 | 310 | 4.0 | 18.0 | 0.00 | 0.29 | 0.29 | 87 | 1008.1 |
| 20260507010105 | 59 | 268 | 1.0 | 4.0 | 0.00 | 0.29 | 0.29 | 94 | 1007.5 |
| 20260507004550 | 59 | 261 | 0.0 | 6.0 | 0.00 | 0.29 | 0.29 | 94 | 1007.2 |
| 20260507003049 | 59 | 0 | 0.0 | 0.0 | 0.00 | 0.29 | 0.29 | 94 | 1007.2 |
| 20260507001551 | 59 | 0 | 0.0 | 0.0 | 0.00 | 0.29 | 0.29 | 94 | 1007.0 |
| 20260507000049 | 59 | 0 | 0.0 | 0.0 | 0.00 | 0.29 | 0.29 | 94 | 1006.9 |
| 20260506234548 | 59 | 0 | 0.0 | 2.0 | 0.00 | 0.29 | 0.29 | 94 | 1006.7 |
| 20260506233052 | 60 | 0 | 0.0 | 1.0 | 0.00 | 0.29 | 0.29 | 94 | 1006.8 |
| 20260506231551 | 60 | 0 | 0.0 | 4.0 | 0.00 | 0.29 | 0.29 | 93 | 1006.8 |
| 20260506230100 | 60 | 256 | 0.0 | 9.0 | 0.00 | 0.29 | 0.29 | 93 | 1006.7 |
| 20260506224556 | 60 | 225 | 4.0 | 9.0 | 0.00 | 0.29 | 0.29 | 93 | 1006.5 |
| 20260506223054 | 60 | 0 | 1.0 | 6.0 | 0.00 | 0.29 | 0.29 | 93 | 1006.1 |
| 20260506221553 | 60 | 203 | 0.0 | 8.0 | 0.00 | 0.29 | 0.29 | 93 | 1006.1 |
| 20260506220053 | 60 | 0 | 0.0 | 3.0 | 0.00 | 0.29 | 0.29 | 93 | 1005.9 |
| 20260506214547 | 60 | 169 | 0.0 | 5.0 | 0.01 | 0.29 | 0.29 | 93 | 1005.8 |
| 20260506213049 | 60 | 0 | 0.0 | 4.0 | 0.02 | 0.29 | 0.29 | 93 | 1005.9 |
| 20260506211552 | 60 | 0 | 0.0 | 5.0 | 0.02 | 0.29 | 0.29 | 93 | 1005.8 |
| 20260506210057 | 60 | 218 | 1.0 | 8.0 | 0.02 | 0.29 | 0.29 | 93 | 1005.7 |
| 20260506204554 | 60 | 0 | 1.0 | 8.0 | 0.01 | 0.28 | 0.28 | 93 | 1005.6 |
| 20260506203054 | 60 | 229 | 1.0 | 7.0 | 0.01 | 0.27 | 0.27 | 93 | 1005.6 |
| 20260506201612 | 60 | 0 | 2.0 | 8.0 | 0.02 | 0.27 | 0.27 | 93 | 1005.9 |
| 20260506200049 | 60 | 219 | 2.0 | 11.0 | 0.03 | 0.27 | 0.27 | 93 | 1006.1 |
| 20260506194552 | 60 | 263 | 2.0 | 6.0 | 0.06 | 0.27 | 0.27 | 93 | 1006.3 |
| 20260506193053 | 60 | 198 | 2.0 | 8.0 | 0.06 | 0.26 | 0.26 | 93 | 1006.5 |
| 20260506191546 | 60 | 244 | 2.0 | 9.0 | 0.06 | 0.25 | 0.25 | 93 | 1006.6 |
| 20260506190050 | 60 | 0 | 2.0 | 9.0 | 0.08 | 0.24 | 0.24 | 92 | 1006.7 |
| 20260506184553 | 60 | 201 | 3.0 | 11.0 | 0.11 | 0.21 | 0.21 | 92 | 1006.8 |
| 20260506183047 | 60 | 134 | 2.0 | 10.0 | 0.11 | 0.20 | 0.20 | 91 | 1006.8 |
| 20260506181548 | 60 | 196 | 1.0 | 8.0 | 0.11 | 0.19 | 0.19 | 91 | 1006.9 |
| 20260506180055 | 60 | 240 | 3.0 | 7.0 | 0.08 | 0.16 | 0.16 | 91 | 1007.3 |
| 20260506174548 | 60 | 213 | 1.0 | 13.0 | 0.04 | 0.10 | 0.10 | 89 | 1007.2 |
| 20260506173109 | 60 | 0 | 2.0 | 9.0 | 0.05 | 0.09 | 0.09 | 89 | 1006.9 |
| 20260506171555 | 60 | 140 | 3.0 | 10.0 | 0.06 | 0.08 | 0.08 | 89 | 1006.9 |
| 20260506170053 | 60 | 0 | 0.0 | 9.0 | 0.08 | 0.08 | 0.08 | 89 | 1007.2 |
| 20260506164549 | 60 | 161 | 3.0 | 12.0 | 0.06 | 0.06 | 0.06 | 88 | 1007.8 |
| 20260506163101 | 61 | 157 | 2.0 | 8.0 | 0.04 | 0.04 | 0.04 | 87 | 1008.1 |
| 20260506161559 | 61 | 0 | 1.0 | 9.0 | 0.01 | 0.01 | 0.01 | 85 | 1008.3 |
| 20260506160056 | 62 | 0 | 3.0 | 7.0 | 0.00 | 0.00 | 0.00 | 84 | 1008.3 |
| 20260506154600 | 63 | 242 | 2.0 | 9.0 | 0.00 | 0.00 | 0.00 | 81 | 1008.1 |
| 20260506153050 | 64 | 197 | 3.0 | 11.0 | 0.00 | 0.00 | 0.00 | 77 | 1008.5 |
| 20260506151558 | 65 | 242 | 4.0 | 10.0 | 0.00 | 0.00 | 0.00 | 75 | 1008.5 |
| 20260506150057 | 65 | 246 | 3.0 | 13.0 | 0.00 | 0.00 | 0.00 | 74 | 1008.5 |
| 20260506144554 | 65 | 190 | 3.0 | 9.0 | 0.00 | 0.00 | 0.00 | 73 | 1008.5 |
| 20260506143052 | 65 | 238 | 4.0 | 15.0 | 0.00 | 0.00 | 0.00 | 73 | 1008.7 |
| 20260506141556 | 64 | 184 | 3.0 | 11.0 | 0.00 | 0.00 | 0.00 | 75 | 1008.9 |
| 20260506140100 | 63 | 256 | 4.0 | 9.0 | 0.00 | 0.00 | 0.00 | 76 | 1009.0 |
| 20260506134550 | 63 | 0 | 2.0 | 10.0 | 0.00 | 0.00 | 0.00 | 77 | 1008.8 |
| 20260506133100 | 62 | 186 | 2.0 | 9.0 | 0.00 | 0.00 | 0.00 | 78 | 1008.6 |
| 20260506131552 | 62 | 140 | 2.0 | 7.0 | 0.00 | 0.00 | 0.00 | 78 | 1008.5 |
| 20260506130053 | 62 | 161 | 2.0 | 10.0 | 0.00 | 0.00 | 0.00 | 77 | 1008.4 |
| 20260506124554 | 62 | 120 | 2.0 | 9.0 | 0.00 | 0.00 | 0.00 | 77 | 1008.6 |
| 20260506123049 | 62 | 185 | 5.0 | 9.0 | 0.00 | 0.00 | 0.00 | 77 | 1008.6 |
| 20260506121546 | 62 | 186 | 3.0 | 12.0 | 0.00 | 0.00 | 0.00 | 77 | 1008.7 |
| 20260506120106 | 62 | 121 | 5.0 | 17.0 | 0.00 | 0.00 | 0.00 | 78 | 1009.1 |